Year,Month,Day,Hour,Minute,Value (Times are PST for insolation in W/m^2)
2010,08,11,00,00,0.00
2010,08,11,00,01,0.00
2010,08,11,00,02,0.00
2010,08,11,00,03,0.00
2010,08,11,00,04,0.00
2010,08,11,00,05,0.00
2010,08,11,00,06,0.00
2010,08,11,00,07,0.00
2010,08,11,00,08,0.00
2010,08,11,00,09,0.00
2010,08,11,00,10,0.00
2010,08,11,00,11,0.00
2010,08,11,00,12,0.00
2010,08,11,00,13,0.00
2010,08,11,00,14,0.00
2010,08,11,00,15,0.00
2010,08,11,00,16,0.00
2010,08,11,00,17,0.00
2010,08,11,00,18,0.00
2010,08,11,00,19,0.00
2010,08,11,00,20,0.00
2010,08,11,00,21,0.00
2010,08,11,00,22,0.00
2010,08,11,00,23,0.00
2010,08,11,00,24,0.00
2010,08,11,00,25,0.00
2010,08,11,00,26,0.00
2010,08,11,00,27,0.00
2010,08,11,00,28,0.00
2010,08,11,00,29,0.00
2010,08,11,00,30,0.00
2010,08,11,00,31,0.00
2010,08,11,00,32,0.00
2010,08,11,00,33,0.00
2010,08,11,00,34,0.00
2010,08,11,00,35,0.00
2010,08,11,00,36,0.00
2010,08,11,00,37,0.00
2010,08,11,00,38,0.00
2010,08,11,00,39,0.00
2010,08,11,00,40,0.00
2010,08,11,00,41,0.00
2010,08,11,00,42,0.00
2010,08,11,00,43,0.00
2010,08,11,00,44,0.00
2010,08,11,00,45,0.00
2010,08,11,00,46,0.00
2010,08,11,00,47,0.00
2010,08,11,00,48,0.00
2010,08,11,00,49,0.00
2010,08,11,00,50,0.00
2010,08,11,00,51,0.00
2010,08,11,00,52,0.00
2010,08,11,00,53,0.00
2010,08,11,00,54,0.00
2010,08,11,00,55,0.00
2010,08,11,00,56,0.00
2010,08,11,00,57,0.00
2010,08,11,00,58,0.00
2010,08,11,00,59,0.00
2010,08,11,01,00,0.00
2010,08,11,01,01,0.00
2010,08,11,01,02,0.00
2010,08,11,01,03,0.00
2010,08,11,01,04,0.00
2010,08,11,01,05,0.00
2010,08,11,01,06,0.00
2010,08,11,01,07,0.00
2010,08,11,01,08,0.00
2010,08,11,01,09,0.00
2010,08,11,01,10,0.00
2010,08,11,01,11,0.00
2010,08,11,01,12,0.00
2010,08,11,01,13,0.00
2010,08,11,01,14,0.00
2010,08,11,01,15,0.00
2010,08,11,01,16,0.00
2010,08,11,01,17,0.00
2010,08,11,01,18,0.00
2010,08,11,01,19,0.00
2010,08,11,01,20,0.00
2010,08,11,01,21,0.00
2010,08,11,01,22,0.00
2010,08,11,01,23,0.00
2010,08,11,01,24,0.00
2010,08,11,01,25,0.00
2010,08,11,01,26,0.00
2010,08,11,01,27,0.00
2010,08,11,01,28,0.00
2010,08,11,01,29,0.00
2010,08,11,01,30,0.00
2010,08,11,01,31,0.00
2010,08,11,01,32,0.00
2010,08,11,01,33,0.00
2010,08,11,01,34,0.00
2010,08,11,01,35,0.00
2010,08,11,01,36,0.00
2010,08,11,01,37,0.00
2010,08,11,01,38,0.00
2010,08,11,01,39,0.00
2010,08,11,01,40,0.00
2010,08,11,01,41,0.00
2010,08,11,01,42,0.00
2010,08,11,01,43,0.00
2010,08,11,01,44,0.00
2010,08,11,01,45,0.00
2010,08,11,01,46,0.00
2010,08,11,01,47,0.00
2010,08,11,01,48,0.00
2010,08,11,01,49,0.00
2010,08,11,01,50,0.00
2010,08,11,01,51,0.00
2010,08,11,01,52,0.00
2010,08,11,01,53,0.00
2010,08,11,01,54,0.00
2010,08,11,01,55,0.00
2010,08,11,01,56,0.00
2010,08,11,01,57,0.00
2010,08,11,01,58,0.00
2010,08,11,01,59,0.00
2010,08,11,02,00,0.00
2010,08,11,02,01,0.00
2010,08,11,02,02,0.00
2010,08,11,02,03,0.00
2010,08,11,02,04,0.00
2010,08,11,02,05,0.00
2010,08,11,02,06,0.00
2010,08,11,02,07,0.00
2010,08,11,02,08,0.00
2010,08,11,02,09,0.00
2010,08,11,02,10,0.00
2010,08,11,02,11,0.00
2010,08,11,02,12,0.00
2010,08,11,02,13,0.00
2010,08,11,02,14,0.00
2010,08,11,02,15,0.00
2010,08,11,02,16,0.00
2010,08,11,02,17,0.00
2010,08,11,02,18,0.00
2010,08,11,02,19,0.00
2010,08,11,02,20,0.00
2010,08,11,02,21,0.00
2010,08,11,02,22,0.00
2010,08,11,02,23,0.00
2010,08,11,02,24,0.00
2010,08,11,02,25,0.00
2010,08,11,02,26,0.00
2010,08,11,02,27,0.00
2010,08,11,02,28,0.00
2010,08,11,02,29,0.00
2010,08,11,02,30,0.00
2010,08,11,02,31,0.00
2010,08,11,02,32,0.00
2010,08,11,02,33,0.00
2010,08,11,02,34,0.00
2010,08,11,02,35,0.00
2010,08,11,02,36,0.00
2010,08,11,02,37,0.00
2010,08,11,02,38,0.00
2010,08,11,02,39,0.00
2010,08,11,02,40,0.00
2010,08,11,02,41,0.00
2010,08,11,02,42,0.00
2010,08,11,02,43,0.00
2010,08,11,02,44,0.00
2010,08,11,02,45,0.00
2010,08,11,02,46,0.00
2010,08,11,02,47,0.00
2010,08,11,02,48,0.00
2010,08,11,02,49,0.00
2010,08,11,02,50,0.00
2010,08,11,02,51,0.00
2010,08,11,02,52,0.00
2010,08,11,02,53,0.00
2010,08,11,02,54,0.00
2010,08,11,02,55,0.00
2010,08,11,02,56,0.00
2010,08,11,02,57,0.00
2010,08,11,02,58,0.00
2010,08,11,02,59,0.00
2010,08,11,03,00,0.00
2010,08,11,03,01,0.00
2010,08,11,03,02,0.00
2010,08,11,03,03,0.00
2010,08,11,03,04,0.00
2010,08,11,03,05,0.00
2010,08,11,03,06,0.00
2010,08,11,03,07,0.00
2010,08,11,03,08,0.00
2010,08,11,03,09,0.00
2010,08,11,03,10,0.00
2010,08,11,03,11,0.00
2010,08,11,03,12,0.00
2010,08,11,03,13,0.00
2010,08,11,03,14,0.00
2010,08,11,03,15,0.00
2010,08,11,03,16,0.00
2010,08,11,03,17,0.00
2010,08,11,03,18,0.00
2010,08,11,03,19,0.00
2010,08,11,03,20,0.00
2010,08,11,03,21,0.00
2010,08,11,03,22,0.00
2010,08,11,03,23,0.00
2010,08,11,03,24,0.00
2010,08,11,03,25,0.00
2010,08,11,03,26,0.00
2010,08,11,03,27,0.00
2010,08,11,03,28,0.00
2010,08,11,03,29,0.00
2010,08,11,03,30,0.00
2010,08,11,03,31,0.00
2010,08,11,03,32,0.00
2010,08,11,03,33,0.00
2010,08,11,03,34,0.00
2010,08,11,03,35,0.00
2010,08,11,03,36,0.00
2010,08,11,03,37,0.00
2010,08,11,03,38,0.00
2010,08,11,03,39,0.00
2010,08,11,03,40,0.00
2010,08,11,03,41,0.00
2010,08,11,03,42,0.00
2010,08,11,03,43,0.00
2010,08,11,03,44,0.00
2010,08,11,03,45,0.00
2010,08,11,03,46,0.00
2010,08,11,03,47,0.00
2010,08,11,03,48,0.00
2010,08,11,03,49,0.00
2010,08,11,03,50,0.00
2010,08,11,03,51,0.00
2010,08,11,03,52,0.00
2010,08,11,03,53,0.00
2010,08,11,03,54,0.00
2010,08,11,03,55,0.00
2010,08,11,03,56,0.00
2010,08,11,03,57,0.00
2010,08,11,03,58,0.00
2010,08,11,03,59,0.00
2010,08,11,04,00,0.00
2010,08,11,04,01,0.00
2010,08,11,04,02,0.00
2010,08,11,04,03,0.00
2010,08,11,04,04,0.00
2010,08,11,04,05,0.00
2010,08,11,04,06,0.00
2010,08,11,04,07,0.00
2010,08,11,04,08,0.00
2010,08,11,04,09,0.00
2010,08,11,04,10,0.00
2010,08,11,04,11,0.00
2010,08,11,04,12,0.00
2010,08,11,04,13,0.00
2010,08,11,04,14,0.00
2010,08,11,04,15,0.00
2010,08,11,04,16,0.00
2010,08,11,04,17,0.00
2010,08,11,04,18,0.00
2010,08,11,04,19,0.00
2010,08,11,04,20,0.00
2010,08,11,04,21,0.00
2010,08,11,04,22,0.00
2010,08,11,04,23,0.00
2010,08,11,04,24,0.00
2010,08,11,04,25,0.00
2010,08,11,04,26,0.00
2010,08,11,04,27,0.00
2010,08,11,04,28,0.00
2010,08,11,04,29,0.00
2010,08,11,04,30,0.00
2010,08,11,04,31,0.00
2010,08,11,04,32,0.00
2010,08,11,04,33,0.00
2010,08,11,04,34,0.00
2010,08,11,04,35,0.00
2010,08,11,04,36,0.00
2010,08,11,04,37,0.00
2010,08,11,04,38,0.00
2010,08,11,04,39,0.00
2010,08,11,04,40,0.00
2010,08,11,04,41,0.00
2010,08,11,04,42,0.00
2010,08,11,04,43,0.00
2010,08,11,04,44,0.00
2010,08,11,04,45,0.00
2010,08,11,04,46,0.00
2010,08,11,04,47,0.00
2010,08,11,04,48,0.00
2010,08,11,04,49,0.00
2010,08,11,04,50,0.00
2010,08,11,04,51,0.00
2010,08,11,04,52,0.00
2010,08,11,04,53,0.00
2010,08,11,04,54,0.00
2010,08,11,04,55,0.00
2010,08,11,04,56,0.00
2010,08,11,04,57,0.00
2010,08,11,04,58,0.00
2010,08,11,04,59,0.00
2010,08,11,05,00,0.00
2010,08,11,05,01,0.00
2010,08,11,05,02,0.00
2010,08,11,05,03,0.00
2010,08,11,05,04,0.00
2010,08,11,05,05,0.00
2010,08,11,05,06,0.00
2010,08,11,05,07,0.00
2010,08,11,05,08,0.00
2010,08,11,05,09,0.00
2010,08,11,05,10,0.00
2010,08,11,05,11,0.00
2010,08,11,05,12,0.00
2010,08,11,05,13,0.00
2010,08,11,05,14,0.00
2010,08,11,05,15,0.00
2010,08,11,05,16,0.00
2010,08,11,05,17,0.00
2010,08,11,05,18,0.00
2010,08,11,05,19,0.00
2010,08,11,05,20,0.00
2010,08,11,05,21,0.00
2010,08,11,05,22,0.00
2010,08,11,05,23,0.00
2010,08,11,05,24,0.00
2010,08,11,05,25,0.00
2010,08,11,05,26,0.00
2010,08,11,05,27,0.00
2010,08,11,05,28,0.00
2010,08,11,05,29,0.00
2010,08,11,05,30,0.00
2010,08,11,05,31,0.00
2010,08,11,05,32,0.00
2010,08,11,05,33,0.00
2010,08,11,05,34,0.00
2010,08,11,05,35,0.00
2010,08,11,05,36,0.00
2010,08,11,05,37,0.00
2010,08,11,05,38,0.00
2010,08,11,05,39,0.00
2010,08,11,05,40,0.00
2010,08,11,05,41,0.00
2010,08,11,05,42,0.00
2010,08,11,05,43,0.00
2010,08,11,05,44,0.00
2010,08,11,05,45,0.00
2010,08,11,05,46,0.00
2010,08,11,05,47,0.00
2010,08,11,05,48,0.00
2010,08,11,05,49,0.00
2010,08,11,05,50,0.00
2010,08,11,05,51,0.00
2010,08,11,05,52,0.00
2010,08,11,05,53,0.00
2010,08,11,05,54,0.00
2010,08,11,05,55,0.00
2010,08,11,05,56,0.00
2010,08,11,05,57,0.00
2010,08,11,05,58,0.00
2010,08,11,05,59,0.00
2010,08,11,06,00,0.00
2010,08,11,06,01,0.00
2010,08,11,06,02,0.00
2010,08,11,06,03,0.00
2010,08,11,06,04,0.00
2010,08,11,06,05,0.00
2010,08,11,06,06,0.00
2010,08,11,06,07,0.00
2010,08,11,06,08,0.00
2010,08,11,06,09,0.00
2010,08,11,06,10,0.00
2010,08,11,06,11,0.00
2010,08,11,06,12,0.00
2010,08,11,06,13,0.00
2010,08,11,06,14,4.00
2010,08,11,06,15,5.00
2010,08,11,06,16,5.00
2010,08,11,06,17,5.00
2010,08,11,06,18,6.10
2010,08,11,06,19,7.00
2010,08,11,06,20,7.00
2010,08,11,06,21,9.00
2010,08,11,06,22,9.00
2010,08,11,06,23,9.80
2010,08,11,06,24,11.00
2010,08,11,06,25,11.00
2010,08,11,06,26,11.90
2010,08,11,06,27,12.30
2010,08,11,06,28,13.40
2010,08,11,06,29,12.00
2010,08,11,06,30,12.00
2010,08,11,06,31,12.00
2010,08,11,06,32,12.00
2010,08,11,06,33,12.00
2010,08,11,06,34,12.60
2010,08,11,06,35,15.90
2010,08,11,06,36,19.90
2010,08,11,06,37,26.50
2010,08,11,06,38,37.80
2010,08,11,06,39,49.30
2010,08,11,06,40,51.70
2010,08,11,06,41,53.00
2010,08,11,06,42,54.90
2010,08,11,06,43,57.60
2010,08,11,06,44,61.80
2010,08,11,06,45,63.40
2010,08,11,06,46,66.40
2010,08,11,06,47,69.00
2010,08,11,06,48,72.20
2010,08,11,06,49,75.60
2010,08,11,06,50,77.10
2010,08,11,06,51,79.80
2010,08,11,06,52,79.20
2010,08,11,06,53,71.40
2010,08,11,06,54,71.10
2010,08,11,06,55,54.30
2010,08,11,06,56,83.90
2010,08,11,06,57,87.40
2010,08,11,06,58,98.20
2010,08,11,06,59,101.10
2010,08,11,07,00,103.40
2010,08,11,07,01,104.80
2010,08,11,07,02,109.30
2010,08,11,07,03,111.50
2010,08,11,07,04,114.30
2010,08,11,07,05,117.20
2010,08,11,07,06,119.40
2010,08,11,07,07,122.50
2010,08,11,07,08,125.30
2010,08,11,07,09,127.00
2010,08,11,07,10,128.40
2010,08,11,07,11,131.20
2010,08,11,07,12,133.50
2010,08,11,07,13,134.00
2010,08,11,07,14,135.00
2010,08,11,07,15,135.60
2010,08,11,07,16,137.90
2010,08,11,07,17,140.30
2010,08,11,07,18,143.40
2010,08,11,07,19,144.00
2010,08,11,07,20,144.60
2010,08,11,07,21,148.90
2010,08,11,07,22,151.90
2010,08,11,07,23,154.30
2010,08,11,07,24,155.80
2010,08,11,07,25,159.90
2010,08,11,07,26,162.20
2010,08,11,07,27,163.70
2010,08,11,07,28,165.00
2010,08,11,07,29,166.40
2010,08,11,07,30,168.70
2010,08,11,07,31,169.30
2010,08,11,07,32,172.40
2010,08,11,07,33,174.70
2010,08,11,07,34,177.00
2010,08,11,07,35,178.70
2010,08,11,07,36,182.40
2010,08,11,07,37,185.00
2010,08,11,07,38,186.50
2010,08,11,07,39,189.50
2010,08,11,07,40,192.50
2010,08,11,07,41,195.70
2010,08,11,07,42,199.50
2010,08,11,07,43,204.30
2010,08,11,07,44,208.60
2010,08,11,07,45,214.20
2010,08,11,07,46,218.90
2010,08,11,07,47,223.80
2010,08,11,07,48,230.90
2010,08,11,07,49,238.10
2010,08,11,07,50,245.10
2010,08,11,07,51,248.00
2010,08,11,07,52,249.10
2010,08,11,07,53,250.00
2010,08,11,07,54,250.00
2010,08,11,07,55,250.00
2010,08,11,07,56,250.30
2010,08,11,07,57,251.90
2010,08,11,07,58,255.30
2010,08,11,07,59,260.50
2010,08,11,08,00,268.80
2010,08,11,08,01,281.30
2010,08,11,08,02,294.40
2010,08,11,08,03,302.00
2010,08,11,08,04,290.00
2010,08,11,08,05,255.20
2010,08,11,08,06,206.30
2010,08,11,08,07,235.50
2010,08,11,08,08,251.30
2010,08,11,08,09,269.00
2010,08,11,08,10,204.80
2010,08,11,08,11,214.90
2010,08,11,08,12,244.10
2010,08,11,08,13,383.60
2010,08,11,08,14,398.40
2010,08,11,08,15,402.10
2010,08,11,08,16,405.10
2010,08,11,08,17,409.40
2010,08,11,08,18,413.20
2010,08,11,08,19,415.40
2010,08,11,08,20,416.30
2010,08,11,08,21,413.90
2010,08,11,08,22,410.90
2010,08,11,08,23,406.60
2010,08,11,08,24,402.30
2010,08,11,08,25,393.90
2010,08,11,08,26,385.90
2010,08,11,08,27,380.10
2010,08,11,08,28,375.10
2010,08,11,08,29,373.10
2010,08,11,08,30,374.00
2010,08,11,08,31,374.60
2010,08,11,08,32,378.10
2010,08,11,08,33,384.50
2010,08,11,08,34,390.70
2010,08,11,08,35,396.20
2010,08,11,08,36,403.50
2010,08,11,08,37,406.00
2010,08,11,08,38,407.90
2010,08,11,08,39,410.60
2010,08,11,08,40,410.30
2010,08,11,08,41,414.50
2010,08,11,08,42,424.00
2010,08,11,08,43,431.60
2010,08,11,08,44,458.50
2010,08,11,08,45,480.00
2010,08,11,08,46,435.00
2010,08,11,08,47,422.00
2010,08,11,08,48,395.30
2010,08,11,08,49,284.70
2010,08,11,08,50,260.70
2010,08,11,08,51,252.50
2010,08,11,08,52,265.20
2010,08,11,08,53,269.30
2010,08,11,08,54,254.60
2010,08,11,08,55,252.30
2010,08,11,08,56,264.20
2010,08,11,08,57,331.40
2010,08,11,08,58,304.80
2010,08,11,08,59,274.90
2010,08,11,09,00,292.20
2010,08,11,09,01,309.90
2010,08,11,09,02,320.90
2010,08,11,09,03,323.00
2010,08,11,09,04,323.00
2010,08,11,09,05,400.30
2010,08,11,09,06,361.10
2010,08,11,09,07,373.90
2010,08,11,09,08,422.00
2010,08,11,09,09,422.00
2010,08,11,09,10,414.70
2010,08,11,09,11,504.00
2010,08,11,09,12,504.00
2010,08,11,09,13,499.30
2010,08,11,09,14,494.00
2010,08,11,09,15,494.00
2010,08,11,09,16,494.00
2010,08,11,09,17,661.00
2010,08,11,09,18,590.80
2010,08,11,09,19,384.80
2010,08,11,09,20,319.70
2010,08,11,09,21,309.00
2010,08,11,09,22,302.70
2010,08,11,09,23,286.50
2010,08,11,09,24,308.50
2010,08,11,09,25,273.80
2010,08,11,09,26,260.50
2010,08,11,09,27,260.40
2010,08,11,09,28,235.00
2010,08,11,09,29,237.30
2010,08,11,09,30,276.00
2010,08,11,09,31,261.30
2010,08,11,09,32,235.60
2010,08,11,09,33,195.10
2010,08,11,09,34,188.10
2010,08,11,09,35,216.60
2010,08,11,09,36,185.40
2010,08,11,09,37,190.00
2010,08,11,09,38,190.00
2010,08,11,09,39,406.30
2010,08,11,09,40,530.10
2010,08,11,09,41,517.00
2010,08,11,09,42,517.00
2010,08,11,09,43,517.00
2010,08,11,09,44,517.00
2010,08,11,09,45,517.00
2010,08,11,09,46,517.20
2010,08,11,09,47,519.00
2010,08,11,09,48,519.00
2010,08,11,09,49,519.00
2010,08,11,09,50,521.20
2010,08,11,09,51,522.00
2010,08,11,09,52,523.90
2010,08,11,09,53,524.50
2010,08,11,09,54,527.30
2010,08,11,09,55,530.20
2010,08,11,09,56,532.50
2010,08,11,09,57,533.80
2010,08,11,09,58,536.30
2010,08,11,09,59,538.60
2010,08,11,10,00,540.50
2010,08,11,10,01,542.20
2010,08,11,10,02,545.80
2010,08,11,10,03,547.00
2010,08,11,10,04,548.00
2010,08,11,10,05,549.90
2010,08,11,10,06,554.00
2010,08,11,10,07,555.80
2010,08,11,10,08,557.00
2010,08,11,10,09,559.00
2010,08,11,10,10,561.40
2010,08,11,10,11,563.40
2010,08,11,10,12,565.00
2010,08,11,10,13,567.30
2010,08,11,10,14,568.00
2010,08,11,10,15,572.70
2010,08,11,10,16,573.50
2010,08,11,10,17,575.70
2010,08,11,10,18,577.50
2010,08,11,10,19,579.40
2010,08,11,10,20,583.40
2010,08,11,10,21,584.10
2010,08,11,10,22,586.10
2010,08,11,10,23,589.00
2010,08,11,10,24,590.10
2010,08,11,10,25,591.70
2010,08,11,10,26,593.70
2010,08,11,10,27,598.70
2010,08,11,10,28,598.80
2010,08,11,10,29,601.00
2010,08,11,10,30,602.20
2010,08,11,10,31,604.50
2010,08,11,10,32,605.90
2010,08,11,10,33,608.30
2010,08,11,10,34,610.60
2010,08,11,10,35,612.50
2010,08,11,10,36,613.00
2010,08,11,10,37,614.50
2010,08,11,10,38,616.80
2010,08,11,10,39,621.50
2010,08,11,10,40,623.40
2010,08,11,10,41,622.90
2010,08,11,10,42,626.50
2010,08,11,10,43,628.70
2010,08,11,10,44,629.10
2010,08,11,10,45,631.40
2010,08,11,10,46,633.60
2010,08,11,10,47,635.50
2010,08,11,10,48,636.00
2010,08,11,10,49,639.20
2010,08,11,10,50,640.10
2010,08,11,10,51,642.20
2010,08,11,10,52,643.70
2010,08,11,10,53,646.10
2010,08,11,10,54,647.00
2010,08,11,10,55,648.60
2010,08,11,10,56,649.30
2010,08,11,10,57,652.50
2010,08,11,10,58,654.70
2010,08,11,10,59,656.50
2010,08,11,11,00,657.00
2010,08,11,11,01,658.60
2010,08,11,11,02,660.80
2010,08,11,11,03,660.10
2010,08,11,11,04,663.00
2010,08,11,11,05,664.50
2010,08,11,11,06,666.00
2010,08,11,11,07,667.60
2010,08,11,11,08,670.00
2010,08,11,11,09,670.80
2010,08,11,11,10,673.00
2010,08,11,11,11,674.20
2010,08,11,11,12,675.00
2010,08,11,11,13,676.70
2010,08,11,11,14,679.00
2010,08,11,11,15,679.20
2010,08,11,11,16,680.80
2010,08,11,11,17,683.20
2010,08,11,11,18,684.00
2010,08,11,11,19,685.80
2010,08,11,11,20,687.00
2010,08,11,11,21,687.60
2010,08,11,11,22,689.90
2010,08,11,11,23,691.00
2010,08,11,11,24,692.50
2010,08,11,11,25,693.40
2010,08,11,11,26,699.30
2010,08,11,11,27,694.10
2010,08,11,11,28,696.90
2010,08,11,11,29,698.00
2010,08,11,11,30,699.60
2010,08,11,11,31,700.00
2010,08,11,11,32,701.80
2010,08,11,11,33,704.30
2010,08,11,11,34,703.00
2010,08,11,11,35,704.30
2010,08,11,11,36,708.80
2010,08,11,11,37,707.50
2010,08,11,11,38,710.00
2010,08,11,11,39,709.30
2010,08,11,11,40,711.20
2010,08,11,11,41,714.00
2010,08,11,11,42,712.30
2010,08,11,11,43,717.20
2010,08,11,11,44,719.00
2010,08,11,11,45,719.80
2010,08,11,11,46,721.50
2010,08,11,11,47,722.00
2010,08,11,11,48,721.20
2010,08,11,11,49,722.00
2010,08,11,11,50,722.00
2010,08,11,11,51,722.80
2010,08,11,11,52,724.00
2010,08,11,11,53,679.10
2010,08,11,11,54,717.70
2010,08,11,11,55,728.00
2010,08,11,11,56,728.30
2010,08,11,11,57,729.00
2010,08,11,11,58,729.00
2010,08,11,11,59,730.50
2010,08,11,12,00,732.70
2010,08,11,12,01,735.30
2010,08,11,12,02,737.00
2010,08,11,12,03,737.00
2010,08,11,12,04,737.00
2010,08,11,12,05,737.00
2010,08,11,12,06,737.90
2010,08,11,12,07,740.00
2010,08,11,12,08,740.00
2010,08,11,12,09,740.90
2010,08,11,12,10,740.70
2010,08,11,12,11,740.00
2010,08,11,12,12,740.20
2010,08,11,12,13,744.00
2010,08,11,12,14,744.30
2010,08,11,12,15,744.50
2010,08,11,12,16,746.10
2010,08,11,12,17,747.00
2010,08,11,12,18,750.50
2010,08,11,12,19,749.00
2010,08,11,12,20,749.70
2010,08,11,12,21,748.90
2010,08,11,12,22,750.20
2010,08,11,12,23,749.50
2010,08,11,12,24,751.10
2010,08,11,12,25,752.00
2010,08,11,12,26,752.00
2010,08,11,12,27,753.10
2010,08,11,12,28,754.00
2010,08,11,12,29,752.30
2010,08,11,12,30,756.00
2010,08,11,12,31,756.00
2010,08,11,12,32,756.00
2010,08,11,12,33,757.20
2010,08,11,12,34,756.50
2010,08,11,12,35,758.50
2010,08,11,12,36,759.00
2010,08,11,12,37,759.00
2010,08,11,12,38,759.00
2010,08,11,12,39,759.00
2010,08,11,12,40,760.50
2010,08,11,12,41,761.00
2010,08,11,12,42,761.60
2010,08,11,12,43,764.40
2010,08,11,12,44,763.90
2010,08,11,12,45,765.00
2010,08,11,12,46,763.40
2010,08,11,12,47,763.10
2010,08,11,12,48,765.20
2010,08,11,12,49,765.70
2010,08,11,12,50,765.00
2010,08,11,12,51,765.60
2010,08,11,12,52,766.00
2010,08,11,12,53,767.50
2010,08,11,12,54,762.50
2010,08,11,12,55,768.00
2010,08,11,12,56,768.00
2010,08,11,12,57,768.00
2010,08,11,12,58,771.20
2010,08,11,12,59,770.20
2010,08,11,13,00,772.00
2010,08,11,13,01,772.00
2010,08,11,13,02,773.60
2010,08,11,13,03,772.90
2010,08,11,13,04,772.00
2010,08,11,13,05,772.30
2010,08,11,13,06,774.20
2010,08,11,13,07,772.00
2010,08,11,13,08,772.50
2010,08,11,13,09,772.30
2010,08,11,13,10,772.80
2010,08,11,13,11,773.00
2010,08,11,13,12,772.70
2010,08,11,13,13,772.00
2010,08,11,13,14,772.60
2010,08,11,13,15,775.70
2010,08,11,13,16,771.40
2010,08,11,13,17,775.00
2010,08,11,13,18,774.40
2010,08,11,13,19,773.00
2010,08,11,13,20,773.00
2010,08,11,13,21,773.00
2010,08,11,13,22,773.00
2010,08,11,13,23,775.00
2010,08,11,13,24,775.00
2010,08,11,13,25,774.10
2010,08,11,13,26,773.00
2010,08,11,13,27,773.00
2010,08,11,13,28,773.00
2010,08,11,13,29,773.00
2010,08,11,13,30,773.00
2010,08,11,13,31,773.00
2010,08,11,13,32,774.30
2010,08,11,13,33,773.40
2010,08,11,13,34,772.10
2010,08,11,13,35,772.20
2010,08,11,13,36,772.60
2010,08,11,13,37,772.50
2010,08,11,13,38,772.40
2010,08,11,13,39,772.00
2010,08,11,13,40,772.00
2010,08,11,13,41,771.60
2010,08,11,13,42,770.70
2010,08,11,13,43,772.00
2010,08,11,13,44,772.00
2010,08,11,13,45,770.30
2010,08,11,13,46,771.70
2010,08,11,13,47,769.60
2010,08,11,13,48,768.70
2010,08,11,13,49,770.00
2010,08,11,13,50,768.60
2010,08,11,13,51,768.00
2010,08,11,13,52,768.00
2010,08,11,13,53,768.00
2010,08,11,13,54,767.20
2010,08,11,13,55,766.00
2010,08,11,13,56,766.00
2010,08,11,13,57,766.00
2010,08,11,13,58,766.00
2010,08,11,13,59,766.50
2010,08,11,14,00,766.80
2010,08,11,14,01,765.00
2010,08,11,14,02,765.00
2010,08,11,14,03,764.90
2010,08,11,14,04,763.00
2010,08,11,14,05,763.00
2010,08,11,14,06,763.00
2010,08,11,14,07,761.70
2010,08,11,14,08,759.50
2010,08,11,14,09,762.60
2010,08,11,14,10,759.00
2010,08,11,14,11,759.00
2010,08,11,14,12,758.50
2010,08,11,14,13,756.70
2010,08,11,14,14,757.50
2010,08,11,14,15,757.80
2010,08,11,14,16,754.40
2010,08,11,14,17,754.50
2010,08,11,14,18,752.00
2010,08,11,14,19,752.00
2010,08,11,14,20,751.20
2010,08,11,14,21,751.00
2010,08,11,14,22,750.20
2010,08,11,14,23,747.00
2010,08,11,14,24,747.00
2010,08,11,14,25,747.00
2010,08,11,14,26,744.50
2010,08,11,14,27,746.60
2010,08,11,14,28,745.50
2010,08,11,14,29,746.20
2010,08,11,14,30,745.00
2010,08,11,14,31,742.90
2010,08,11,14,32,743.70
2010,08,11,14,33,742.00
2010,08,11,14,34,742.00
2010,08,11,14,35,742.00
2010,08,11,14,36,739.70
2010,08,11,14,37,737.30
2010,08,11,14,38,737.00
2010,08,11,14,39,737.00
2010,08,11,14,40,735.70
2010,08,11,14,41,733.00
2010,08,11,14,42,733.00
2010,08,11,14,43,731.60
2010,08,11,14,44,731.00
2010,08,11,14,45,728.80
2010,08,11,14,46,727.40
2010,08,11,14,47,726.90
2010,08,11,14,48,726.70
2010,08,11,14,49,724.40
2010,08,11,14,50,722.20
2010,08,11,14,51,723.60
2010,08,11,14,52,721.70
2010,08,11,14,53,720.10
2010,08,11,14,54,719.00
2010,08,11,14,55,719.00
2010,08,11,14,56,717.00
2010,08,11,14,57,714.80
2010,08,11,14,58,714.00
2010,08,11,14,59,711.90
2010,08,11,15,00,711.30
2010,08,11,15,01,710.50
2010,08,11,15,02,708.00
2010,08,11,15,03,707.40
2010,08,11,15,04,705.00
2010,08,11,15,05,703.90
2010,08,11,15,06,703.00
2010,08,11,15,07,701.30
2010,08,11,15,08,704.40
2010,08,11,15,09,700.70
2010,08,11,15,10,698.40
2010,08,11,15,11,697.20
2010,08,11,15,12,695.30
2010,08,11,15,13,695.70
2010,08,11,15,14,693.00
2010,08,11,15,15,692.50
2010,08,11,15,16,691.00
2010,08,11,15,17,689.80
2010,08,11,15,18,687.50
2010,08,11,15,19,687.00
2010,08,11,15,20,686.00
2010,08,11,15,21,686.00
2010,08,11,15,22,685.20
2010,08,11,15,23,682.90
2010,08,11,15,24,679.80
2010,08,11,15,25,679.90
2010,08,11,15,26,676.70
2010,08,11,15,27,674.40
2010,08,11,15,28,673.00
2010,08,11,15,29,674.30
2010,08,11,15,30,671.10
2010,08,11,15,31,669.90
2010,08,11,15,32,667.70
2010,08,11,15,33,666.00
2010,08,11,15,34,666.00
2010,08,11,15,35,664.70
2010,08,11,15,36,663.20
2010,08,11,15,37,661.10
2010,08,11,15,38,660.60
2010,08,11,15,39,658.20
2010,08,11,15,40,655.40
2010,08,11,15,41,654.00
2010,08,11,15,42,654.00
2010,08,11,15,43,651.80
2010,08,11,15,44,648.50
2010,08,11,15,45,647.70
2010,08,11,15,46,647.90
2010,08,11,15,47,647.00
2010,08,11,15,48,647.00
2010,08,11,15,49,642.90
2010,08,11,15,50,641.60
2010,08,11,15,51,638.40
2010,08,11,15,52,636.00
2010,08,11,15,53,636.00
2010,08,11,15,54,633.50
2010,08,11,15,55,630.80
2010,08,11,15,56,629.00
2010,08,11,15,57,627.70
2010,08,11,15,58,626.00
2010,08,11,15,59,624.50
2010,08,11,16,00,622.20
2010,08,11,16,01,619.00
2010,08,11,16,02,619.00
2010,08,11,16,03,617.30
2010,08,11,16,04,613.80
2010,08,11,16,05,612.30
2010,08,11,16,06,612.90
2010,08,11,16,07,609.70
2010,08,11,16,08,607.40
2010,08,11,16,09,605.50
2010,08,11,16,10,603.70
2010,08,11,16,11,601.50
2010,08,11,16,12,599.10
2010,08,11,16,13,598.00
2010,08,11,16,14,596.80
2010,08,11,16,15,593.10
2010,08,11,16,16,592.00
2010,08,11,16,17,591.20
2010,08,11,16,18,588.90
2010,08,11,16,19,585.00
2010,08,11,16,20,584.70
2010,08,11,16,21,582.90
2010,08,11,16,22,580.60
2010,08,11,16,23,578.40
2010,08,11,16,24,576.80
2010,08,11,16,25,574.60
2010,08,11,16,26,572.30
2010,08,11,16,27,569.30
2010,08,11,16,28,568.00
2010,08,11,16,29,564.60
2010,08,11,16,30,562.80
2010,08,11,16,31,560.50
2010,08,11,16,32,558.20
2010,08,11,16,33,555.80
2010,08,11,16,34,554.30
2010,08,11,16,35,552.40
2010,08,11,16,36,549.70
2010,08,11,16,37,547.20
2010,08,11,16,38,545.00
2010,08,11,16,39,543.90
2010,08,11,16,40,541.50
2010,08,11,16,41,540.20
2010,08,11,16,42,537.70
2010,08,11,16,43,535.40
2010,08,11,16,44,533.60
2010,08,11,16,45,531.90
2010,08,11,16,46,531.00
2010,08,11,16,47,527.40
2010,08,11,16,48,525.70
2010,08,11,16,49,522.80
2010,08,11,16,50,520.00
2010,08,11,16,51,519.40
2010,08,11,16,52,516.00
2010,08,11,16,53,514.80
2010,08,11,16,54,511.60
2010,08,11,16,55,509.40
2010,08,11,16,56,507.10
2010,08,11,16,57,504.70
2010,08,11,16,58,501.80
2010,08,11,16,59,499.10
2010,08,11,17,00,498.60
2010,08,11,17,01,495.90
2010,08,11,17,02,492.90
2010,08,11,17,03,490.70
2010,08,11,17,04,489.20
2010,08,11,17,05,486.90
2010,08,11,17,06,483.00
2010,08,11,17,07,482.60
2010,08,11,17,08,478.80
2010,08,11,17,09,476.00